User: anonymous   Login
Location: Gipe Farm
(40.9466°N, 95.5370°W)
Time: 21:04:25
(UTC-05:00)
Language:

Cosmos 2082 Rocket - Orbit

View from above orbital plane
View from above orbital plane
View from above satellite
View from above satellite

Ground track
Ground track

The orbit data is extracted from the following two-line orbital elements,

1 20625U 90046B   17289.47815677 -.00000298 +00000-0 -13006-3 0  9990
2 20625 070.9984 254.5709 0016872 281.4520 078.4708 14.14621577414733
Epoch (UTC): 16 October 2017 11:28:32
Eccentricity: 0.0016872
inclination: 70.9984°
perigee height: 831 km
apogee height: 856 km
right ascension of ascending node: 254.5709°
argument of perigee: 281.4520°
revolutions per day: 14.14621577
mean anomaly at epoch: 78.4708°
orbit number at epoch: 41473

The dashed part of the orbit path shows where the satellite is in the earth's shadow,  

DLR